ORBCOMM FM 7

Satellite information

Favourite Embed

Satellite Type and Status

PAYLOADIN ORBIT

Key statistics

Satellite ORBCOMM FM 7 at a glance.

Uptime

10112

Days in orbit

Revolutions

≈ 14.5

Per day

Orbit

LEO

Low Earth Orbit

Inclination

45.0

Latest

Satellite identification and parameters

Extended collection of information and parameters for ORBCOMM FM 7.

Object identification

Identified? True

Debris? False

Object name: ORBCOMM FM 7

International designator: 1997-084H

Object number (NORAD): 25119

Object ID (CCSDS): 25119

Country: ORBITAL TELECOMMUNICATIONS SATELLITE (GLOBALSTAR) (ORB)

Current information (Y/N): Y

RCS size: MEDIUM

Orbital parameters

Period: 99.566 minutes

Inclination: 45.0151 deg

SMA: 7115.981 km

Apoapsis: 740.961 km

Periapsis: 734.731 km

RAAN: 21.3192 deg

Eccentricy: 0.00043774

Argument of periapsis: 206.4693 deg

Mean anomaly: 153.5936 deg

Mean motion: 14.46274134 rev/day

Mean motion (dot): 0.00001901 rev/day2

B* drag term: 0.0005654834 1/REarth

Two-line elements (TLE)

Creation date: Aug. 28, 2025, 11:13 p.m.

Reference frame: TEME

Reference center: EARTH

Epoch: Aug. 28, 2025, 11:32 a.m. UTC

TLE line 0: 0 ORBCOMM FM 7

TLE line 1: 1 25119U 97084H 25240.48066325 .00001901 00000-0 56548-3 0 9995

TLE line 2: 2 25119 45.0151 21.3192 0004377 206.4693 153.5936 14.46274134451980

Live tracking on map

Real-time ground track for satellite ORBCOMM FM 7.

In-orbit conjunctions

There are no conjunctions computed for ORBCOMM FM 7, at the moment. Check back to stay up to date, as we update our databases every day.

Go to all conjunctions

Associated space launch

ORBCOMM FM 7 was lifted into orbit during the mission ‘Pegasus XL HAPS | Orbcomm-A1 - A8’, on board a Pegasus XL HAPS space rocket.

The launch took place on Dec. 23, 1997, 7:11 p.m. from Wallops Flight Facility.

For more information about the launch, click the button.

Launch to space Pegasus XL HAPS | Orbcomm-A1 - A8
Pegasus XL HAPS | Orbcomm-A1 - A8

Agency: N/A

Status: Launch Successful

Launch date: Dec. 23, 1997, 7:11 p.m. UTC

Rocket: Pegasus XL HAPS

Launch pad: Wallops Flight Facility

Location: Air launch to orbit

...

Latest news about this satellite

There are no fresh news available about this satellite. Check back as we update our databases every day.


Newsletter sign-up

Weekly statistics, charts and insights to help you stay on top of the space industry.